Location: R�serve Fauniques des Laurentides
(47.3100°N, 71.1900°W)
Time: 06:34:24
(UTC-04:00)

Amateur Radio Satellites - All Passes

Search period start: 28 June 2017 06:04
Search period end: 29 June 2017 06:04
Location: R�serve Fauniques des Laurentides, 47.3100°N, 71.1900°W

Satellite Date Start Highest point End Downlink Frequencies (MHz)
Time Altitude Azimuth
LilacSat-2 28 Jun 06:04:45 06:07:32 19° 93° (E) 06:10:17 437.200
STARS 28 Jun 06:12:47 06:16:19 24° 266° (W) 06:19:53 437.465
CUTE-I 28 Jun 06:14:06 06:18:28 25° 93° (E) 06:22:48 437.470
XW-2C 28 Jun 06:17:24 06:20:34 25° 95° (E) 06:23:41 145.795 - 145.815
KAITUO 1B 28 Jun 06:24:32 06:27:32 23° 94° (E) 06:30:30 145.475/437.950
ITAMSAT 1 28 Jun 06:32:09 06:33:54 12° 308° (NW) 06:35:38 435.822/435.867
DOVE 4 28 Jun 06:36:11 06:41:09 89° 110° (ESE) 06:46:20 437.250
Tancredo 1 28 Jun 06:53:37 06:55:44 17° 138° (SE) 06:57:51 437.200
NUDT-PHONESAT 28 Jun 06:55:39 06:59:16 51° 99° (E) 07:02:51 437.300
HO-68 28 Jun 07:04:13 07:09:52 24° 91° (E) 07:15:27 435.675
STRAND 1 28 Jun 07:07:03 07:12:11 79° 73° (ENE) 07:17:22 437.568
RS-15 28 Jun 07:07:27 07:18:14 40° 253° (WSW) 07:28:34 29.354- 29.394
XW-2F 28 Jun 07:20:17 07:24:01 63° 285° (WNW) 07:27:42 145.980 - 146.000
XW-2D 28 Jun 07:26:25 07:30:05 49° 287° (WNW) 07:33:43 145.860 - 145.880
SEEDS 28 Jun 07:31:20 07:34:17 19° 91° (E) 07:37:14 437.485
O/OREOS (USA 219) 28 Jun 07:32:11 07:36:16 35° 253° (WSW) 07:40:20 437.305
XW-2B 28 Jun 07:35:36 07:39:09 40° 289° (WNW) 07:42:41 145.730 - 145.750
LilacSat-2 28 Jun 07:38:27 07:41:56 36° 290° (WNW) 07:45:24 437.200
FO-29 28 Jun 07:39:50 07:43:55 17° 48° (NE) 07:48:15 435.910
ISS 28 Jun 07:46:27 07:49:17 27° 142° (SE) 07:52:08 437.550
YUBILEINY 28 Jun 07:51:08 07:59:16 38° 67° (ENE) 08:07:19 435.215
XW-2C 28 Jun 07:51:29 07:54:43 27° 292° (WNW) 07:57:56 145.795 - 145.815
CUTE-I 28 Jun 07:53:35 07:58:49 53° 291° (WNW) 08:04:01 437.470
CUTE 1.7 + AOD 2 28 Jun 07:53:38 07:57:43 48° 99° (E) 08:01:47 437.475
AO-7 28 Jun 07:57:28 08:00:52 13° 327° (NNW) 08:04:18 .
KAITUO 1B 28 Jun 07:58:19 08:01:33 28° 292° (WNW) 08:04:45 145.475/437.950
AAUSAT CUBESAT 2 28 Jun 08:13:10 08:16:32 24° 94° (E) 08:19:55 437.432
AO-73 28 Jun 08:15:21 08:17:46 14° 88° (E) 08:20:08 145.935
DOVE 4 28 Jun 08:15:29 08:18:12 15° 301° (WNW) 08:20:59 437.250
M-CUBED/EXP-1 PRIME 28 Jun 08:27:32 08:30:19 26° 62° (ENE) 08:33:07 437.505
Tancredo 1 28 Jun 08:27:56 08:30:58 82° 336° (NNW) 08:34:01 437.200
TIGRISAT 28 Jun 08:29:22 08:32:13 16° 59° (ENE) 08:35:06 435.000
NUDT-PHONESAT 28 Jun 08:30:44 08:32:46 14° 298° (WNW) 08:34:48 437.300
XW-2A 28 Jun 08:33:07 08:36:33 77° 284° (WNW) 08:39:55 145.665 - 145.685
CUBEBUG 2 28 Jun 08:35:02 08:39:46 70° 102° (ESE) 08:44:20 437.445
Oscar 11 28 Jun 08:38:23 08:41:26 19° 91° (E) 08:44:29 .
STRAND 1 28 Jun 08:49:02 08:51:59 15° 272° (W) 08:54:56 437.568
ZACube-1 28 Jun 08:50:57 08:55:05 35° 96° (E) 08:59:04 437.345
HO-68 28 Jun 08:51:06 08:58:17 75° 291° (WNW) 09:05:25 435.675
UWE-3 28 Jun 09:02:32 09:07:10 80° 103° (ESE) 09:11:37 435.000/436.395/437.385
PRISM 28 Jun 09:02:38 09:06:11 30° 67° (ENE) 09:09:45 437.425
SEEDS 28 Jun 09:06:13 09:10:12 44° 289° (WNW) 09:14:10 437.485
UNISAT 6 28 Jun 09:10:34 09:14:52 39° 68° (ENE) 09:19:14 437.425
DELFI C3 28 Jun 09:14:27 09:15:41 11° 88° (E) 09:16:54 145.870
FO-29 28 Jun 09:21:19 09:27:35 71° 71° (ENE) 09:34:45 435.910
ISS 28 Jun 09:22:20 09:25:35 64° 340° (NNW) 09:28:53 437.550
CUTE 1.7 + AOD 2 28 Jun 09:30:16 09:33:14 19° 297° (WNW) 09:36:12 437.475
YUBILEINY 28 Jun 09:47:54 09:56:27 56° 270° (W) 10:04:55 435.215
AAUSAT CUBESAT 2 28 Jun 09:48:21 09:52:03 33° 291° (WNW) 09:55:46 437.432
AO-73 28 Jun 09:50:04 09:54:29 65° 286° (WNW) 09:58:45 145.935
M-CUBED/EXP-1 PRIME 28 Jun 10:02:23 10:04:50 20° 260° (W) 10:07:18 437.505
TIGRISAT 28 Jun 10:03:42 10:08:20 73° 258° (WSW) 10:13:03 435.000
Tancredo 1 28 Jun 10:03:58 10:06:48 35° 355° (N) 10:09:38 437.200
DUCHIFAT 1 28 Jun 10:11:45 10:11:58 10° 56° (NE) 10:12:10 145.980
CUBEBUG 2 28 Jun 10:12:49 10:15:49 17° 300° (WNW) 10:18:45 437.445
Oscar 11 28 Jun 10:13:41 10:17:50 47° 289° (WNW) 10:21:57 .
NANOSAT C BR1 28 Jun 10:19:52 10:22:01 14° 59° (ENE) 10:24:10 145.865
ZACube-1 28 Jun 10:27:28 10:31:13 27° 295° (WNW) 10:34:52 437.345
PRISM 28 Jun 10:38:01 10:41:27 26° 265° (W) 10:44:56 437.425
HO-68 28 Jun 10:40:13 10:44:53 19° 312° (NW) 10:49:33 435.675
UWE-3 28 Jun 10:40:31 10:42:57 14° 302° (WNW) 10:45:21 435.000/436.395/437.385
DELFI C3 28 Jun 10:46:58 10:50:55 69° 285° (WNW) 10:54:50 145.870
UNISAT 6 28 Jun 10:47:44 10:51:40 27° 266° (W) 10:55:39 437.425
POLYITAN 1 28 Jun 10:58:29 11:02:21 33° 67° (ENE) 11:06:13 437.675
ISS 28 Jun 10:59:20 11:02:25 36° 360° (N) 11:05:32 437.550
EO-88 28 Jun 11:00:37 11:04:15 68° 285° (WNW) 11:07:52 145.990 - 145.960
BUGSAT 1 28 Jun 11:07:43 11:09:27 12° 58° (ENE) 11:11:11 437.445
FO-29 28 Jun 11:08:25 11:13:25 24° 273° (W) 11:18:54 435.910
QB50P2 28 Jun 11:09:14 11:13:20 46° 70° (ENE) 11:17:26 145.880/145.840
AIST 2D 28 Jun 11:12:51 11:16:25 87° 257° (WSW) 11:19:59 435.315
LO-87 28 Jun 11:13:27 11:16:26 23° 94° (E) 11:19:23 145.935 - 145.965
ESTCUBE 1 28 Jun 11:24:58 11:28:25 21° 93° (E) 11:31:49 437.505/2401.250
EO-79 28 Jun 11:32:25 11:36:40 74° 75° (ENE) 11:40:58 145.935-145.965
PCSat 28 Jun 11:36:25 11:41:41 55° 117° (ESE) 11:47:00 145.827
Tancredo 1 28 Jun 11:39:47 11:42:45 48° 15° (NNE) 11:45:43 437.200
DUCHIFAT 1 28 Jun 11:42:37 11:46:51 77° 75° (ENE) 11:51:08 145.980
YUBILEINY 28 Jun 11:48:47 11:51:07 11° 292° (WNW) 11:53:27 435.215
Gurwin Techsat 1B 28 Jun 11:51:05 11:53:18 13° 53° (NE) 11:55:32 435.225
NANOSAT C BR1 28 Jun 11:52:54 11:57:09 76° 257° (WSW) 12:01:27 145.865
Oscar 19 28 Jun 12:09:40 12:13:48 25° 62° (ENE) 12:17:56 437.125/150
POLYITAN 1 28 Jun 12:34:33 12:38:10 26° 265° (W) 12:41:49 437.675
ISS 28 Jun 12:35:59 12:39:16 64° 20° (NNE) 12:42:32 437.550
BUGSAT 1 28 Jun 12:40:00 12:44:09 84° 256° (WSW) 12:48:24 437.445
SPROUT 28 Jun 12:45:46 12:49:48 37° 97° (E) 12:53:48 437.525
QB50P2 28 Jun 12:46:16 12:49:21 19° 268° (W) 12:52:27 145.880/145.840
LO-87 28 Jun 12:46:43 12:49:51 28° 292° (WNW) 12:52:59 145.935 - 145.965
VELOX 1 28 Jun 12:48:43 12:52:50 36° 97° (E) 12:56:56 145.980
DX 1 28 Jun 12:58:56 13:01:43 16° 91° (E) 13:04:28 434.975-435.025
ESTCUBE 1 28 Jun 13:01:09 13:05:25 45° 290° (WNW) 13:09:41 437.505/2401.250
UKube-1 28 Jun 13:09:49 13:12:10 14° 90° (E) 13:14:31 .
EO-79 28 Jun 13:11:13 13:12:57 12° 272° (W) 13:14:42 145.935-145.965
Tancredo 1 28 Jun 13:15:26 13:18:18 38° 214° (SW) 13:21:09 437.200
PCSat 28 Jun 13:20:34 13:25:22 31° 318° (NW) 13:30:13 145.827
DUCHIFAT 1 28 Jun 13:21:35 13:23:03 12° 272° (W) 13:24:33 145.980
AO-7 28 Jun 13:21:35 13:28:11 27° 49° (NE) 13:34:48 .
Gurwin Techsat 1B 28 Jun 13:27:02 13:32:19 70° 72° (ENE) 13:37:38 435.225
50 SAT 28 Jun 13:39:49 13:43:14 62° 102° (ESE) 13:46:36 437.505
SO-50 28 Jun 13:40:29 13:44:48 45° 120° (ESE) 13:49:08 436.795
Oscar 19 28 Jun 13:47:48 13:52:49 51° 260° (W) 13:57:50 437.125/150
ISS 28 Jun 14:12:42 14:15:34 27° 218° (SW) 14:18:26 437.550
SPROUT 28 Jun 14:22:02 14:25:32 25° 295° (WNW) 14:29:00 437.525
VELOX 1 28 Jun 14:25:26 14:29:09 27° 295° (WNW) 14:32:52 145.980
ITAMSAT 1 28 Jun 14:32:22 14:37:12 40° 66° (ENE) 14:42:05 435.822/435.867
DX 1 28 Jun 14:33:56 14:38:15 57° 288° (WNW) 14:42:32 434.975-435.025
UKube-1 28 Jun 14:44:20 14:48:37 64° 288° (WNW) 14:52:54 .
MOZHAYETS 4 28 Jun 14:53:16 14:55:07 12° 87° (E) 14:56:58
PCSat 28 Jun 15:08:48 15:10:35 11° 342° (NNW) 15:12:23 145.827
Gurwin Techsat 1B 28 Jun 15:09:14 15:12:48 18° 270° (W) 15:16:23 435.225
AO-7 28 Jun 15:11:40 15:20:01 88° 253° (WSW) 15:28:27 .
50 SAT 28 Jun 15:14:39 15:15:32 11° 299° (WNW) 15:16:24 437.505
SO-50 28 Jun 15:21:21 15:25:24 31° 320° (NW) 15:29:28 436.795
ITUPSAT 1 28 Jun 15:41:40 15:46:21 50° 100° (E) 15:51:00 437.325
BEESAT 28 Jun 15:49:23 15:54:08 61° 102° (ESE) 15:58:51 436.000
DOVE 4 28 Jun 16:09:37 16:12:07 15° 59° (ENE) 16:14:42 437.250
ITAMSAT 1 28 Jun 16:12:11 16:16:45 31° 265° (W) 16:21:23 435.822/435.867
MOZHAYETS 4 28 Jun 16:28:16 16:32:54 81° 284° (WNW) 16:37:27
XW-2D 28 Jun 16:38:34 16:40:11 12° 61° (ENE) 16:41:47 145.860 - 145.880
XW-2B 28 Jun 16:47:04 16:49:12 15° 62° (ENE) 16:51:21 145.730 - 145.750
LilacSat-2 28 Jun 16:50:00 16:52:29 17° 63° (ENE) 16:54:59 437.200
XW-2C 28 Jun 17:01:51 17:04:44 21° 65° (ENE) 17:07:37 145.795 - 145.815
SO-50 28 Jun 17:06:01 17:07:17 11° 343° (NNW) 17:08:34 436.795
KAITUO 1B 28 Jun 17:07:48 17:10:28 19° 65° (ENE) 17:13:08 145.475/437.950
AO-7 28 Jun 17:07:57 17:13:54 21° 271° (W) 17:19:56 .
CUBESAT XI-V 28 Jun 17:18:05 17:22:41 66° 101° (ESE) 17:27:15 437.345
ITUPSAT 1 28 Jun 17:20:08 17:23:52 23° 298° (WNW) 17:27:35 437.325
BEESAT 28 Jun 17:28:05 17:31:28 20° 300° (WNW) 17:34:51 436.000
HO-68 28 Jun 17:36:39 17:42:28 28° 55° (NE) 17:48:17 435.675
KKS-1 28 Jun 17:37:29 17:41:59 68° 103° (ESE) 17:46:27 437.445
NUDT-PHONESAT 28 Jun 17:37:36 17:41:05 37° 70° (ENE) 17:44:34 437.300
CUTE-I 28 Jun 17:38:44 17:43:55 53° 69° (ENE) 17:49:08 437.470
DOVE 4 28 Jun 17:45:07 17:49:16 64° 259° (W) 17:53:40 437.250
STARS 28 Jun 17:57:41 18:02:01 48° 100° (E) 18:06:18 437.465
CUBEBUG 2 28 Jun 18:02:21 18:04:16 12° 56° (NE) 18:06:10 437.445
XW-2F 28 Jun 18:03:33 18:07:23 87° 264° (W) 18:11:13 145.980 - 146.000
MOZHAYETS 4 28 Jun 18:07:39 18:09:16 12° 304° (NW) 18:10:53
XW-2D 28 Jun 18:10:02 18:13:51 68° 259° (W) 18:17:40 145.860 - 145.880
XW-2B 28 Jun 18:19:12 18:22:58 55° 259° (W) 18:26:45 145.730 - 145.750
LilacSat-2 28 Jun 18:22:42 18:26:26 47° 261° (W) 18:30:11 437.200
SEEDS 28 Jun 18:26:01 18:29:06 20° 64° (ENE) 18:32:11 437.485
UWE-3 28 Jun 18:28:23 18:30:39 14° 58° (ENE) 18:32:55 435.000/436.395/437.385
XW-2C 28 Jun 18:35:10 18:38:43 36° 263° (W) 18:42:17 145.795 - 145.815
PCSat 28 Jun 18:38:13 18:42:22 21° 35° (NE) 18:46:29 145.827
KAITUO 1B 28 Jun 18:40:40 18:44:13 39° 262° (W) 18:47:47 145.475/437.950
CUTE 1.7 + AOD 2 28 Jun 18:48:54 18:53:01 50° 72° (ENE) 18:57:07 437.475
CUBESAT XI-V 28 Jun 18:56:37 18:59:33 17° 300° (WNW) 19:02:29 437.345
AAUSAT CUBESAT 2 28 Jun 19:06:12 19:09:34 25° 66° (ENE) 19:12:56 437.432
XW-2A 28 Jun 19:06:54 19:10:15 54° 74° (ENE) 19:13:40 145.665 - 145.685
NUDT-PHONESAT 28 Jun 19:12:26 19:15:07 18° 268° (W) 19:17:48 437.300
AO-73 28 Jun 19:13:22 19:16:31 19° 62° (ENE) 19:19:40 145.935
STRAND 1 28 Jun 19:15:05 19:18:59 21° 92° (E) 19:22:50 437.568
KKS-1 28 Jun 19:15:16 19:18:02 16° 301° (WNW) 19:20:48 437.445
AO-85 28 Jun 19:16:51 19:19:47 20° 115° (ESE) 19:22:41 145.980
CUTE-I 28 Jun 19:20:00 19:24:16 24° 268° (W) 19:28:34 437.470
HO-68 28 Jun 19:22:23 19:29:34 75° 255° (WSW) 19:36:49 435.675
RS-15 28 Jun 19:22:32 19:32:33 32° 103° (ESE) 19:42:40 29.354- 29.394
STARS 28 Jun 19:34:42 19:38:03 21° 298° (WNW) 19:41:22 437.465
CUBEBUG 2 28 Jun 19:35:24 19:40:04 81° 74° (ENE) 19:44:51 437.445
Oscar 11 28 Jun 19:36:03 19:39:25 22° 64° (ENE) 19:42:47 .
ZACube-1 28 Jun 19:49:06 19:53:24 41° 69° (ENE) 19:57:44 437.345
BEESAT 2 28 Jun 19:58:24 19:59:51 12° 109° (ESE) 20:01:19 435.950
SEEDS 28 Jun 20:00:30 20:04:31 44° 262° (W) 20:08:32 437.485
UWE-3 28 Jun 20:01:45 20:06:23 90° 258° (WSW) 20:11:07 435.000/436.395/437.385
DELFI C3 28 Jun 20:03:31 20:04:38 11° 59° (ENE) 20:05:44 145.870
O/OREOS (USA 219) 28 Jun 20:09:35 20:12:34 17° 100° (E) 20:15:33 437.305
PCSat 28 Jun 20:21:05 20:26:34 86° 58° (ENE) 20:31:59 145.827
BEESAT 3 28 Jun 20:25:55 20:29:50 58° 123° (ESE) 20:33:49 437.485
CUTE 1.7 + AOD 2 28 Jun 20:26:18 20:29:07 17° 269° (W) 20:31:58 437.475
SO-50 28 Jun 20:28:40 20:32:07 21° 33° (NNE) 20:35:35 436.795
FO-29 28 Jun 20:30:44 20:32:35 11° 78° (ENE) 20:34:25 435.910
AAUSAT CUBESAT 2 28 Jun 20:41:09 20:44:53 33° 263° (W) 20:48:40 437.432
XW-2A 28 Jun 20:42:26 20:43:21 11° 271° (W) 20:44:16 145.665 - 145.685
AO-73 28 Jun 20:47:48 20:52:19 59° 260° (W) 20:56:51 145.935
STRAND 1 28 Jun 20:53:27 20:58:31 57° 290° (WNW) 21:03:33 437.568
AO-85 28 Jun 20:55:59 20:59:53 48° 312° (NW) 21:03:42 145.980
YUBILEINY 28 Jun 20:56:28 21:04:19 38° 84° (E) 21:12:13 435.215
Oscar 11 28 Jun 21:11:10 21:15:18 42° 262° (W) 21:19:27 .
NO-84 28 Jun 21:11:23 21:15:11 55° 140° (SE) 21:19:18 435.350 FM
HO-68 28 Jun 21:14:44 21:18:31 15° 275° (W) 21:22:19 435.675
CUBEBUG 2 28 Jun 21:15:07 21:17:17 13° 274° (W) 21:19:29 437.445
ZACube-1 28 Jun 21:26:06 21:29:49 24° 267° (W) 21:33:34 437.345
RS-15 28 Jun 21:31:25 21:43:42 87° 308° (NW) 21:56:10 29.354- 29.394
BEESAT 2 28 Jun 21:32:58 21:36:58 83° 307° (NW) 21:41:03 435.950
DELFI C3 28 Jun 21:34:53 21:38:48 81° 258° (WSW) 21:42:44 145.870
M-CUBED/EXP-1 PRIME 28 Jun 21:36:52 21:38:51 14° 98° (E) 21:40:53 437.505
EO-88 28 Jun 21:40:49 21:44:29 80° 76° (ENE) 21:48:11 145.990 - 145.960
UWE-3 28 Jun 21:42:04 21:43:31 11° 274° (W) 21:44:59 435.000/436.395/437.385
O/OREOS (USA 219) 28 Jun 21:47:03 21:51:31 58° 299° (WNW) 21:56:00 437.305
TIGRISAT 28 Jun 21:52:52 21:56:17 20° 91° (E) 21:59:37 435.000
LO-87 28 Jun 21:53:08 21:55:25 16° 64° (ENE) 21:57:43 145.935 - 145.965
BEESAT 3 28 Jun 22:04:32 22:07:43 22° 323° (NW) 22:10:57 437.485
PCSat 28 Jun 22:06:00 22:09:13 16° 256° (WSW) 22:12:25 145.827
SO-50 28 Jun 22:08:36 22:13:08 83° 234° (SW) 22:17:41 436.795
FO-29 28 Jun 22:11:36 22:19:18 54° 98° (E) 22:26:50 435.910
PRISM 28 Jun 22:15:24 22:19:05 31° 97° (E) 22:22:45 437.425
ESTCUBE 1 28 Jun 22:27:16 22:31:07 29° 66° (ENE) 22:34:59 437.505/2401.250
UNISAT 6 28 Jun 22:35:18 22:39:54 54° 100° (E) 22:44:21 437.425
STRAND 1 28 Jun 22:36:30 22:36:38 10° 309° (NW) 22:36:45 437.568
AO-85 28 Jun 22:39:53 22:41:13 11° 335° (NNW) 22:42:32 145.980
NO-84 28 Jun 22:49:04 22:52:56 41° 340° (NNW) 22:57:02 435.350 FM
YUBILEINY 28 Jun 22:52:12 23:00:49 56° 286° (WNW) 23:09:30 435.215
M-CUBED/EXP-1 PRIME 28 Jun 23:09:51 23:13:33 60° 292° (WNW) 23:17:32 437.505
BEESAT 2 28 Jun 23:12:45 23:15:22 16° 328° (NNW) 23:18:00 435.950
LO-87 28 Jun 23:25:10 23:28:33 40° 262° (W) 23:31:58 145.935 - 145.965
TIGRISAT 28 Jun 23:28:45 23:33:16 51° 289° (WNW) 23:37:40 435.000
O/OREOS (USA 219) 28 Jun 23:30:59 23:31:57 11° 320° (NW) 23:32:55 437.305
NANOSAT C BR1 28 Jun 23:35:22 23:37:40 14° 89° (E) 23:39:57 145.865
SPROUT 28 Jun 23:41:46 23:45:48 42° 70° (ENE) 23:49:53 437.525
RS-15 28 Jun 23:46:34 23:58:04 42° 336° (NNW) 00:09:32 29.354- 29.394
VELOX 1 28 Jun 23:48:41 23:52:53 47° 70° (ENE) 23:57:06 145.980
PRISM 28 Jun 23:50:48 23:54:17 27° 294° (WNW) 23:57:46 437.425
SO-50 28 Jun 23:51:21 23:52:52 11° 252° (WSW) 23:54:22 436.795
FO-29 28 Jun 23:56:54 00:04:04 41° 298° (WNW) 00:11:11 435.910
DX 1 28 Jun 23:57:14 00:00:34 22° 63° (ENE) 00:03:54 434.975-435.025
ESTCUBE 1 29 Jun 00:03:45 00:07:50 34° 264° (W) 00:11:56 437.505/2401.250
UKube-1 29 Jun 00:06:59 00:10:03 19° 62° (ENE) 00:13:07 .
AIST 2D 29 Jun 00:07:52 00:11:23 74° 102° (ESE) 00:14:51 435.315
UNISAT 6 29 Jun 00:12:48 00:16:12 20° 298° (WNW) 00:19:33 437.425
50 SAT 29 Jun 00:14:28 00:17:34 35° 70° (ENE) 00:20:42 437.505
POLYITAN 1 29 Jun 00:15:22 00:19:25 39° 98° (E) 00:23:24 437.675
BUGSAT 1 29 Jun 00:20:31 00:22:06 12° 88° (E) 00:23:40 437.445
QB50P2 29 Jun 00:26:20 00:30:34 55° 100° (E) 00:34:44 145.880/145.840
NO-84 29 Jun 00:27:36 00:31:19 29° 2° (N) 00:35:09 435.350 FM
EO-79 29 Jun 00:49:27 00:53:45 89° 100° (E) 00:58:01 145.935-145.965
YUBILEINY 29 Jun 00:55:52 01:00:05 14° 312° (NW) 01:04:19 435.215
DUCHIFAT 1 29 Jun 00:58:53 01:03:10 90° 279° (W) 01:07:24 145.980
NANOSAT C BR1 29 Jun 01:09:34 01:13:48 63° 288° (WNW) 01:17:59 145.865
ITUPSAT 1 29 Jun 01:16:41 01:18:55 13° 55° (NE) 01:21:09 437.325
SPROUT 29 Jun 01:18:39 01:21:54 21° 268° (W) 01:25:11 437.525
BEESAT 29 Jun 01:23:30 01:26:14 15° 57° (ENE) 01:28:58 436.000
VELOX 1 29 Jun 01:26:23 01:29:34 20° 268° (W) 01:32:48 145.980
DX 1 29 Jun 01:32:22 01:36:29 43° 261° (W) 01:40:39 434.975-435.025
Gurwin Techsat 1B 29 Jun 01:40:43 01:44:46 22° 91° (E) 01:48:47 435.225
UKube-1 29 Jun 01:41:33 01:45:44 50° 260° (W) 01:49:57 .
FO-29 29 Jun 01:44:58 01:47:05 11° 319° (NW) 01:49:12 435.910
50 SAT 29 Jun 01:48:27 01:50:31 15° 268° (W) 01:52:35 437.505
POLYITAN 1 29 Jun 01:51:34 01:54:59 23° 296° (WNW) 01:58:23 437.675
BUGSAT 1 29 Jun 01:53:42 01:57:59 76° 286° (WNW) 02:02:11 437.445
Oscar 19 29 Jun 01:55:57 02:00:50 43° 99° (E) 02:05:41 437.125/150
MOZHAYETS 4 29 Jun 01:57:31 02:00:44 19° 61° (ENE) 02:03:57
QB50P2 29 Jun 02:03:05 02:05:57 18° 298° (WNW) 02:08:47 145.880/145.840
RS-15 29 Jun 02:03:38 02:14:42 35° 10° (N) 02:25:29 29.354- 29.394
AO-85 29 Jun 02:04:30 02:05:58 12° 26° (NNE) 02:07:27 145.980
NO-84 29 Jun 02:05:29 02:09:40 46° 22° (NNE) 02:13:54 435.350 FM
EO-79 29 Jun 02:27:14 02:28:50 12° 302° (WNW) 02:30:27 145.935-145.965
DUCHIFAT 1 29 Jun 02:36:41 02:38:08 12° 303° (WNW) 02:39:36 145.980
ITAMSAT 1 29 Jun 02:45:03 02:45:42 10° 85° (E) 02:46:21 435.822/435.867
CUBESAT XI-V 29 Jun 02:49:54 02:52:03 13° 57° (ENE) 02:54:11 437.345
ITUPSAT 1 29 Jun 02:51:10 02:55:59 84° 73° (ENE) 03:00:51 437.325
BEESAT 29 Jun 02:58:34 03:03:22 82° 256° (WSW) 03:08:12 436.000
BEESAT 3 29 Jun 03:02:56 03:05:43 18° 34° (NNE) 03:08:29 437.485
KKS-1 29 Jun 03:04:53 03:06:48 13° 57° (ENE) 03:08:44 437.445
AO-7 29 Jun 03:10:29 03:17:09 25° 92° (E) 03:23:44 .
Gurwin Techsat 1B 29 Jun 03:19:52 03:25:06 59° 290° (WNW) 03:30:19 435.225
MOZHAYETS 4 29 Jun 03:32:52 03:37:27 60° 259° (W) 03:42:03
Oscar 19 29 Jun 03:35:37 03:39:59 29° 297° (WNW) 03:44:20 437.125/150
NO-84 29 Jun 03:43:07 03:47:22 50° 221° (SW) 03:51:34 435.350 FM
AO-85 29 Jun 03:43:21 03:47:18 47° 47° (NE) 03:51:27 145.980
BEESAT 2 29 Jun 04:10:27 04:13:53 25° 39° (NE) 04:17:16 435.950
RS-15 29 Jun 04:18:01 04:30:14 62° 42° (NE) 04:41:51 29.354- 29.394
ITAMSAT 1 29 Jun 04:20:48 04:26:05 74° 104° (ESE) 04:31:18 435.822/435.867
CUBESAT XI-V 29 Jun 04:24:06 04:28:44 89° 256° (WSW) 04:33:23 437.345
ITUPSAT 1 29 Jun 04:32:17 04:34:27 13° 272° (W) 04:36:37 437.325
O/OREOS (USA 219) 29 Jun 04:37:50 04:38:38 10° 40° (NE) 04:39:25 437.305
KKS-1 29 Jun 04:38:15 04:42:41 89° 278° (W) 04:47:10 437.445
BEESAT 3 29 Jun 04:39:48 04:43:51 86° 234° (SW) 04:47:49 437.485
BEESAT 29 Jun 04:41:01 04:41:54 10° 274° (W) 04:42:47 436.000
STARS 29 Jun 04:56:55 05:01:15 63° 72° (ENE) 05:05:38 437.465
AO-7 29 Jun 05:02:22 05:10:47 81° 293° (WNW) 05:19:10 .
Gurwin Techsat 1B 29 Jun 05:02:47 05:03:59 11° 309° (NW) 05:05:11 435.225
AO-85 29 Jun 05:24:12 05:27:28 22° 244° (WSW) 05:30:52 145.980
DOVE 4 29 Jun 05:39:58 05:44:19 29° 94° (E) 05:48:48 437.250
BEESAT 2 29 Jun 05:47:55 05:51:51 49° 239° (WSW) 05:55:46 435.950
XW-2B 29 Jun 05:50:13 05:51:47 12° 89° (E) 05:53:21 145.730 - 145.750
CUTE-I 29 Jun 05:53:37 05:56:58 16° 89° (E) 06:00:17 437.470
LilacSat-2 29 Jun 05:53:48 05:55:58 14° 90° (E) 05:58:05 437.200
